Weather History for Manchester, NH

Change the Weather History Date:

Saturday, January 5, 2013

  Actual Average Record
Temperature  
Mean Temperature 27 °F -  
Max Temperature 37 °F 32 °F 66 °F (1950)
Min Temperature 17 °F 11 °F -18 °F (1996)
Degree Days  
Heating Degree Days 38    
Moisture  
Dew Point 17 °F    
Average Humidity 57    
Maximum Humidity 81    
Minimum Humidity 38    
Precipitation  
Precipitation 0.00 in - - ()
Snow  
Snow 0.00 in - - ()
Snow Depth 7.00 in    
Sea Level Pressure  
Sea Level Pressure 30.11 in    
Wind  
Wind Speed 7 mph (WNW)    
Max Wind Speed 15 mph    
Max Gust Speed 31 mph    
Visibility 10 miles    
Events      
Averages and records for this station are not official NWS values.
T = Trace of Precipitation, MM = Missing Value Source: NWS Daily Summary

Daily Weather History Graph

Daily Weather History Graph

Search for Another Location

Airport:

Trip Planner

Search our weather history database for the weather conditions in past years. The results will help you decide how hot, cold, wet, or windy it might be!

Date:

Astronomy

Jan. 05, 2013 Rise Set
Actual Time 7:16 AM EST 4:26 PM EST
Civil Twilight 6:44 AM EST 4:58 PM EST
Nautical Twilight 6:09 AM EST 5:33 PM EST
Astronomical Twilight 5:35 AM EST 6:07 PM EST
Moon 12:14 AM EST (1/5) 11:18 AM EST (1/5)
Length of Visible Light 10h 13m
Length of Day
9h 09m
Last Quarter, 44% of the Moon is Illuminated
Jan 5
Last Quarter
Jan 11
New
Jan 18
First Quarter
Jan 26
Full
Feb 3
Last Quarter

Hourly Weather History & Observations

Time (EST) Temp. Windchill Dew Point Humidity Pressure Visibility Wind Dir Wind Speed Gust Speed Precip Events Conditions
12:53 AM 34.0 °F 26.0 °F 19.0 °F 54% 29.84 in 10.0 mi WSW 10.4 mph - N/A   Overcast
1:53 AM 34.0 °F 27.2 °F 19.9 °F 56% 29.87 in 10.0 mi West 8.1 mph - N/A   Overcast
2:53 AM 34.0 °F 28.0 °F 19.9 °F 56% 29.88 in 10.0 mi SW 6.9 mph - N/A   Mostly Cloudy
3:53 AM 33.1 °F 26.9 °F 21.0 °F 61% 29.89 in 10.0 mi WSW 6.9 mph - N/A   Mostly Cloudy
4:53 AM 34.0 °F 27.2 °F 21.0 °F 59% 29.92 in 10.0 mi WSW 8.1 mph - N/A   Mostly Cloudy
5:53 AM 32.0 °F 27.5 °F 21.0 °F 64% 29.96 in 10.0 mi SW 4.6 mph - N/A   Partly Cloudy
6:53 AM 33.1 °F 27.7 °F 19.9 °F 59% 30.00 in 10.0 mi SW 5.8 mph - N/A   Clear
7:53 AM 33.1 °F 28.7 °F 19.0 °F 56% 30.04 in 10.0 mi Variable 4.6 mph - N/A   Clear
8:53 AM 36.0 °F 29.0 °F 19.9 °F 52% 30.08 in 10.0 mi WNW 9.2 mph - N/A   Overcast
9:53 AM 36.0 °F 26.7 °F 16.0 °F 44% 30.14 in 10.0 mi WNW 15.0 mph 31.1 mph N/A   Scattered Clouds
10:53 AM 36.0 °F 27.1 °F 17.1 °F 46% 30.16 in 10.0 mi NNW 13.8 mph - N/A   Scattered Clouds
11:53 AM 37.4 °F 31.4 °F 15.8 °F 41% 30.11 in 10.0 mi NNW 8.1 mph - N/A   Clear
12:53 PM 37.9 °F 31.5 °F 15.1 °F 39% 30.17 in 10.0 mi WNW 9.2 mph - N/A   Clear
1:53 PM 37.9 °F 32.7 °F 14.0 °F 38% 30.19 in 10.0 mi West 6.9 mph 17.3 mph N/A   Clear
2:53 PM 36.0 °F 27.5 °F 12.9 °F 39% 30.18 in 10.0 mi NW 12.7 mph - N/A   Clear
3:53 PM 33.1 °F 26.1 °F 15.1 °F 48% 30.20 in 10.0 mi North 8.1 mph - N/A   Clear
4:53 PM 33.1 °F 28.7 °F 14.0 °F 46% 30.24 in 10.0 mi WNW 4.6 mph - N/A   Clear
5:53 PM 27.0 °F - 15.1 °F 61% 30.26 in 10.0 mi Calm Calm - N/A   Clear
6:53 PM 24.1 °F - 15.1 °F 69% 30.28 in 10.0 mi Calm Calm - N/A   Clear
7:53 PM 24.1 °F 18.2 °F 15.1 °F 69% 30.28 in 10.0 mi WNW 4.6 mph - N/A   Clear
8:53 PM 21.0 °F - 14.0 °F 74% 30.27 in 10.0 mi Calm Calm - N/A   Clear
9:53 PM 21.0 °F - 14.0 °F 74% 30.27 in 10.0 mi Calm Calm - N/A   Clear
10:53 PM 17.1 °F - 12.0 °F 81% 30.28 in 10.0 mi Calm Calm - N/A   Clear
11:53 PM 17.1 °F 11.7 °F 12.0 °F 81% 30.25 in 9.0 mi North 3.5 mph - N/A   Clear